APG276 RPLK-RPLL

Flight info

Callsign APG276
Flight time N/A
Altitude 25000
Route NGA2B NGA W9 AKDAP AKDAP1A
Aircraft A20N/M-SDE2E3FGHIRWXY/LB1

Departure

Time 2026-04-24 16:34
Airport Bicol International Airport (RPLK)

Arrival

Time N/A
Airport Ninoy Aquino International Airport (RPLL)
Time Latitude Longitude Altitude Speed Heading
2026-04-24 16:34 13.07254 123.63356 1555 ft 139 kts 47°
2026-04-24 16:34 13.07882 123.64068 1311 ft 137 kts 49°
2026-04-24 16:34 13.08544 123.64778 1021 ft 138 kts 45°
2026-04-24 16:34 13.09210 123.65479 744 ft 136 kts 47°
2026-04-24 16:35 13.09852 123.66194 536 ft 136 kts 47°
2026-04-24 16:35 13.10489 123.66905 392 ft 135 kts 47°
2026-04-24 16:35 13.11125 123.67610 307 ft 129 kts 47°
2026-04-24 16:35 13.11518 123.68018 304 ft 25 kts 42°
2026-04-24 16:36 13.11542 123.68056 304 ft 0 kts 117°
2026-04-24 16:36 13.11525 123.68051 304 ft 5 kts 216°
2026-04-24 16:36 13.11462 123.68035 304 ft 14 kts 156°
2026-04-24 16:36 13.11383 123.68100 305 ft 15 kts 166°
2026-04-24 16:37 13.11247 123.68070 305 ft 24 kts 178°
2026-04-24 16:37 13.11203 123.68117 305 ft 4 kts 123°
2026-04-24 16:37 13.11165 123.68115 305 ft 8 kts 207°
2026-04-24 16:37 13.11162 123.68114 305 ft 0 kts 202°
2026-04-24 16:38 13.11162 123.68113 305 ft 2 kts 220°
2026-04-24 16:38 12.99230 123.54445 305 ft 447 kts 47°
2026-04-24 16:38 12.99733 123.55001 3469 ft 150 kts 46°
2026-04-24 16:39 12.99230 123.54445 3465 ft 447 kts 47°
2026-04-24 16:40 12.99371 123.54601 3508 ft 172 kts 47°
2026-04-24 16:40 13.00070 123.55368 3684 ft 162 kts 47°
2026-04-24 16:41 13.00786 123.56181 3484 ft 148 kts 48°
2026-04-24 16:41 13.01462 123.56946 3209 ft 141 kts 47°
2026-04-24 16:41 13.02098 123.57676 2936 ft 134 kts 47°
2026-04-24 16:41 13.02727 123.58363 2682 ft 130 kts 46°
2026-04-24 16:42 13.03348 123.59037 2493 ft 129 kts 47°
2026-04-24 16:42 13.03962 123.59695 2324 ft 129 kts 45°
2026-04-24 16:42 13.04386 123.60142 2191 ft 129 kts 45°
2026-04-24 16:42 13.05015 123.60797 1941 ft 129 kts 45°
2026-04-24 16:43 13.05840 123.61665 1591 ft 128 kts 47°
2026-04-24 16:43 13.06454 123.62326 1358 ft 127 kts 46°
2026-04-24 16:43 13.07028 123.63018 1168 ft 127 kts 50°
2026-04-24 16:43 13.07593 123.63711 1047 ft 127 kts 48°
2026-04-24 16:44 13.07990 123.64167 958 ft 127 kts 47°
2026-04-24 16:44 13.08595 123.64826 801 ft 126 kts 46°
2026-04-24 16:44 13.09189 123.65473 674 ft 126 kts 47°
2026-04-24 16:44 13.09799 123.66139 522 ft 125 kts 47°
2026-04-24 16:45 13.10380 123.66793 389 ft 126 kts 46°
2026-04-24 16:45 13.10969 123.67438 306 ft 122 kts 46°
2026-04-24 16:45 13.11359 123.67868 305 ft 40 kts 47°